T 2004 Dec. 8.9212 TT MPC q 0.681783 (2000.0) P Q Peri. 92.8155 +0.0908421 -0.9498716 Node 19.2198 -0.7370118 -0.2661478 e 1.0 Incl. 114.6676 +0.6697472 -0.1640407 >From 75 observations 2004 Sept. 26-Oct. 20.
m1 = 17.0 + 5 logΔ + 10.0 log r [ ,-57] ( 〜2004年10月12日) m1 = 20.0 + 5 logΔ - 16.5 log r [-57, 0] (2004年10月12日〜2004年12月 8日) m1 = 24.5 + 5 logΔ + 10 log r [ 0, ] (2004年12月 8日〜 ) ※ 灰色の曲線は、m1 = 17.0 + 5 logΔ + 10.0 log r の光度曲線です。